# Total inorganic carbon (TCO2) in a unit kg  of seawater measured onboard R/V Mirai (NODC Code: unknown) of the Japan Marine Science and Technology Center (JAMSTEC).,,,,,,,,,,,,,,,,,
# Cruise = MR00-K8,,,,,,,,,,,,,,,,,
# Measured on board by Meteorological Research Institute with an automated coulometric system manufactured by Nippon ANS Co. ,,,,,,,,,,,,,,,,,
"# Batches of Certified Reference Material for TCO2 analysis provided by Dr A. G. Dickson have been used for quality control. Significant offset, if any, has been corrected for.",,,,,,,,,,,,,,,,,
"# Total alkalinity (TA) has been calculated from TCO2, SST, salinity and pCO2 that have been concurrently measured using carbonic acid dissociation constants given by Roy et al., 1993.",,,,,,,,,,,,,,,,,
# Date and Time = UTC,,,,,,,,,,,,,,,,,
"# Quality flag (F); good=2, questionable=3, bad =4, not reported = 5, no data =9",,,,,,,,,,,,,,,,,
#,,,,,,,,,,,,,,,,,
Ship,Cruise,No.,Date,,,Time,,Latitude,Longitude,TCO2,F,TA_calcd,F,SST,F,SSS,F
,,,year,month,day,hour,min,deg,deg,umol/kg,,umol/kg,,degC,,,
Mirai,MR00-K8,1,2001,1,9,9,59,17.67,201.75,1936.7,3,2280.2,3,25.34,2,34.426,2
Mirai,MR00-K8,2,2001,1,9,11,11,17.37,201.72,1957.2,3,2307.2,3,25.24,2,34.769,2
Mirai,MR00-K8,3,2001,1,9,11,43,17.22,201.71,1961.6,3,2312.5,3,25.23,2,34.794,2
Mirai,MR00-K8,4,2001,1,9,12,41,16.96,201.68,1963.3,3,2313,3,25.24,2,34.86,2
Mirai,MR00-K8,5,2001,1,9,13,13,16.82,201.66,1967.1,3,2317.1,3,25.28,2,34.911,2
Mirai,MR00-K8,6,2001,1,9,14,11,16.56,201.63,1956.2,3,2306.6,3,25.22,2,34.742,2
Mirai,MR00-K8,7,2001,1,9,14,43,16.41,201.62,1952.6,3,2300.7,3,25.24,2,34.656,2
Mirai,MR00-K8,8,2001,1,9,15,40,16.16,201.59,1963.8,3,2314.6,3,25.22,2,34.86,2
Mirai,MR00-K8,9,2001,1,9,16,12,16.02,201.58,1959.1,3,2309.3,3,25.21,2,34.787,2
Mirai,MR00-K8,10,2001,1,9,17,10,15.77,201.56,1956.3,3,2305.8,3,25.22,2,34.702,2
Mirai,MR00-K8,11,2001,1,9,17,42,15.63,201.55,1956.8,3,2305.8,3,25.22,2,34.732,2
Mirai,MR00-K8,12,2001,1,9,18,40,15.38,201.52,1940.6,3,2286.4,3,25.32,2,34.385,2
Mirai,MR00-K8,13,2001,1,9,19,13,15.25,201.51,1934.5,3,2275.5,3,25.47,2,34.295,2
Mirai,MR00-K8,14,2001,1,9,20,9,15.01,201.49,1930.9,3,2270.3,3,25.46,2,34.177,2
Mirai,MR00-K8,15,2001,1,9,20,42,14.87,201.48,1929.9,3,2268.3,3,25.48,2,34.172,2
Mirai,MR00-K8,16,2001,1,9,21,39,14.64,201.46,1929.1,3,2267.8,3,25.56,2,34.172,2
Mirai,MR00-K8,17,2001,1,9,22,12,14.5,201.44,1929.2,3,2267.5,3,25.61,2,34.165,2
Mirai,MR00-K8,18,2001,1,10,2,10,13.49,201.33,1936.4,2,2279.2,2,25.91,2,34.312,2
Mirai,MR00-K8,19,2001,1,10,2,43,13.36,201.32,1934.2,2,2273.7,2,25.92,2,34.266,2
Mirai,MR00-K8,20,2001,1,10,3,41,13.12,201.3,1934.9,3,2272.1,3,25.91,2,34.228,2
Mirai,MR00-K8,21,2001,1,10,4,13,12.98,201.29,1934.1,3,2270.6,3,25.88,2,34.209,2
Mirai,MR00-K8,22,2001,1,10,5,11,12.73,201.27,1934,3,2270.9,3,25.85,2,34.211,2
Mirai,MR00-K8,23,2001,1,10,5,43,12.6,201.25,1932.5,3,2270.5,3,25.86,2,34.217,2
Mirai,MR00-K8,24,2001,1,10,9,41,11.6,201.15,1925.8,3,2270.4,3,26.06,2,34.235,2
Mirai,MR00-K8,25,2001,1,10,10,13,11.47,201.14,1925.5,3,2269.5,3,26.07,2,34.229,2
Mirai,MR00-K8,26,2001,1,10,11,11,11.23,201.11,1928.8,3,2269.5,3,26.08,2,34.27,2
Mirai,MR00-K8,27,2001,1,10,11,43,11.09,201.1,1929.6,3,2271.2,3,26.02,2,34.247,2
Mirai,MR00-K8,28,2001,1,10,12,41,10.85,201.08,1928.7,3,2270.4,3,25.97,2,34.243,2
Mirai,MR00-K8,29,2001,1,10,13,13,10.72,201.07,1930,3,2273.2,3,26.1,2,34.276,2
Mirai,MR00-K8,30,2001,1,10,14,10,10.48,201.04,1935.1,3,2278.8,3,26.32,2,34.39,2
Mirai,MR00-K8,31,2001,1,10,14,42,10.35,201.02,1932.8,3,2279.5,3,26.39,2,34.388,2
Mirai,MR00-K8,32,2001,1,10,15,40,10.11,201,1932.7,3,2283.1,3,26.63,2,34.471,2
Mirai,MR00-K8,33,2001,1,10,16,12,9.98,200.99,1937.5,3,2290.6,3,26.82,2,34.573,2
Mirai,MR00-K8,34,2001,1,10,17,10,9.73,200.97,1927.6,3,2281.4,3,26.9,2,34.417,2
Mirai,MR00-K8,35,2001,1,10,17,43,9.6,200.95,1921.8,3,2274.7,3,26.92,2,34.343,2
Mirai,MR00-K8,36,2001,1,10,18,39,9.37,200.93,1930,3,2282.8,3,27.09,2,34.448,2
Mirai,MR00-K8,37,2001,1,10,19,12,9.24,200.92,1929.7,3,2281.3,3,27.15,2,34.485,2
Mirai,MR00-K8,38,2001,1,10,20,9,9.01,200.9,1922.3,3,2276.8,3,27.07,2,34.372,2
Mirai,MR00-K8,39,2001,1,10,20,42,8.88,200.88,1938.5,3,2294.3,3,27.38,2,34.608,2
Mirai,MR00-K8,40,2001,1,10,21,39,8.64,200.86,1945.3,3,2298.8,3,27.49,2,34.686,2
Mirai,MR00-K8,41,2001,1,10,22,12,8.51,200.85,1946.2,3,2298.7,3,27.55,2,34.705,2
Mirai,MR00-K8,42,2001,1,10,23,8,8.28,200.83,1943.9,3,2297.5,3,27.53,2,34.675,2
Mirai,MR00-K8,43,2001,1,10,23,41,8.15,200.81,1940.8,3,2295.1,3,27.6,2,34.631,2
Mirai,MR00-K8,44,2001,1,11,2,11,7.55,200.74,1929,3,2282.8,3,27.66,2,34.499,2
Mirai,MR00-K8,45,2001,1,11,2,43,7.42,200.73,1939.1,3,2292.9,3,27.66,2,34.625,2
Mirai,MR00-K8,46,2001,1,11,3,41,7.18,200.71,1954,3,2303.9,3,27.61,2,34.821,2
Mirai,MR00-K8,47,2001,1,11,4,13,7.05,200.69,1944.6,3,2296.4,3,27.67,2,34.689,2
Mirai,MR00-K8,48,2001,1,11,5,11,6.82,200.67,1937.3,3,2290.5,3,27.65,2,34.594,2
Mirai,MR00-K8,49,2001,1,11,5,43,6.68,200.67,1946.3,3,2297.4,3,27.57,2,34.692,2
Mirai,MR00-K8,50,2001,1,11,6,40,6.45,200.64,1947.3,3,2297.5,3,27.56,2,34.72,2
Mirai,MR00-K8,51,2001,1,11,7,12,6.32,200.63,1953.3,3,2303.6,3,27.59,2,34.775,2
Mirai,MR00-K8,52,2001,1,11,8,10,6.08,200.6,1968.2,3,2313.4,3,27.56,2,34.982,2
Mirai,MR00-K8,53,2001,1,11,8,42,5.95,200.59,1970.8,3,2316.3,3,27.55,2,35.013,2
Mirai,MR00-K8,54,2001,1,11,9,40,5.72,200.57,1969.8,3,2316.2,3,27.57,2,34.997,2
Mirai,MR00-K8,55,2001,1,11,10,13,5.59,200.56,1971.8,3,2318.9,3,27.59,2,34.991,2
Mirai,MR00-K8,56,2001,1,11,11,9,5.36,200.53,1967.2,3,2313.5,3,27.61,2,34.96,2
Mirai,MR00-K8,57,2001,1,11,11,42,5.23,200.52,1966.4,3,2312.3,3,27.62,2,34.963,2
Mirai,MR00-K8,58,2001,1,11,12,39,5,200.49,1960.5,3,2306.3,3,27.65,2,34.901,2
Mirai,MR00-K8,59,2001,1,11,13,12,4.87,200.47,1963.5,3,2310.4,3,27.64,2,34.928,2
Mirai,MR00-K8,60,2001,1,11,14,9,4.64,200.45,1966,3,2312.7,3,27.66,2,34.956,2
Mirai,MR00-K8,61,2001,1,11,14,42,4.51,200.44,1971.5,3,2317.8,3,27.65,2,34.982,2
Mirai,MR00-K8,62,2001,1,11,15,38,4.28,200.42,1976.5,3,2315.3,3,27.46,2,35.03,2
Mirai,MR00-K8,63,2001,1,11,16,11,4.15,200.4,1990.3,3,2318,3,27.12,2,35.059,2
Mirai,MR00-K8,64,2001,1,11,17,9,3.91,200.38,2003.7,3,2322.8,3,26.67,2,35.116,2
Mirai,MR00-K8,65,2001,1,11,17,41,3.78,200.37,2009,3,2325.9,3,26.59,2,35.135,2
Mirai,MR00-K8,66,2001,1,11,18,39,3.54,200.34,2011.1,3,2326.1,3,26.52,2,35.147,2
Mirai,MR00-K8,67,2001,1,11,19,11,3.4,200.33,2013.2,3,2327.1,3,26.48,2,35.149,2
Mirai,MR00-K8,68,2001,1,11,21,41,2.77,200.26,2017.7,2,2324,2,26.23,2,35.122,2
Mirai,MR00-K8,69,2001,1,11,22,13,2.64,200.25,2019,2,2325.2,2,26.21,2,35.12,2
Mirai,MR00-K8,70,2001,1,11,23,11,2.4,200.23,2019.8,2,2325.9,2,26.23,2,35.124,2
Mirai,MR00-K8,71,2001,1,11,23,43,2.26,200.21,2019.3,3,2322.6,3,26.13,2,35.089,2
Mirai,MR00-K8,72,2001,1,12,0,41,2.01,200.19,2019.9,2,2321.5,2,26.1,2,35.072,2
Mirai,MR00-K8,73,2001,1,12,1,13,1.88,200.17,2020.1,2,2320.2,2,26.08,2,35.076,2
Mirai,MR00-K8,74,2001,1,12,2,10,1.63,200.16,2022.4,2,2321.6,2,26.01,2,35.086,2
Mirai,MR00-K8,75,2001,1,12,2,42,1.49,200.16,2026.9,2,2323.5,2,25.92,2,35.094,2
Mirai,MR00-K8,76,2001,1,12,3,40,1.24,200.16,2027.1,3,2321.1,3,25.8,2,35.103,2
Mirai,MR00-K8,77,2001,1,12,4,12,1.1,200.16,2029,3,2319,3,25.71,2,35.114,2
Mirai,MR00-K8,78,2001,1,12,5,10,0.85,200.14,2031.1,3,-9,3,25.69,2,35.139,2
Mirai,MR00-K8,79,2001,1,12,5,43,0.71,200.14,2030.6,3,2324.9,3,25.64,2,35.145,2
Mirai,MR00-K8,80,2001,1,12,6,39,0.45,200.12,2032.3,3,2326.6,3,25.61,2,35.151,2
Mirai,MR00-K8,81,2001,1,12,7,12,0.3,200.11,2031.8,3,2326.4,3,25.58,2,35.14,2
Mirai,MR00-K8,82,2001,1,12,8,9,0.06,200.1,2031.2,3,2325.9,3,25.53,2,35.144,2
Mirai,MR00-K8,83,2001,1,12,8,42,0,200.01,2031.5,3,2327,3,25.56,2,35.142,2
Mirai,MR00-K8,84,2001,1,12,9,39,0.07,199.9,2031.4,3,2326.9,3,25.53,2,35.141,2
Mirai,MR00-K8,85,2001,1,12,10,12,0.04,200,2031.6,3,2326.9,3,25.52,2,35.136,2
Mirai,MR00-K8,86,2001,1,12,11,8,-0.06,200.01,2031.5,3,2327.3,3,25.51,2,35.14,2
Mirai,MR00-K8,87,2001,1,12,11,41,0,199.99,2032.6,3,2327.8,3,25.5,2,35.143,2
Mirai,MR00-K8,88,2001,1,12,12,39,0,199.98,2031.8,3,2326.1,3,25.46,2,35.143,2
Mirai,MR00-K8,89,2001,1,12,13,11,0,199.98,2032.3,3,2326.3,3,25.46,2,35.144,2
Mirai,MR00-K8,90,2001,1,12,14,9,0,199.98,2033.5,3,2327.4,3,25.43,2,35.145,2
Mirai,MR00-K8,91,2001,1,12,14,41,0,199.98,2033.4,3,2327.3,3,25.44,2,35.145,2
Mirai,MR00-K8,92,2001,1,12,15,38,0,199.98,2031.5,3,2325,3,25.44,2,35.144,2
Mirai,MR00-K8,93,2001,1,12,16,10,0,199.96,2033.4,3,2327.1,3,25.43,2,35.146,2
Mirai,MR00-K8,94,2001,1,12,17,8,0,199.97,2031.2,3,2324.3,3,25.41,2,35.148,2
Mirai,MR00-K8,95,2001,1,12,17,40,0,199.97,2031.9,3,2325,3,25.41,2,35.148,2
Mirai,MR00-K8,96,2001,1,12,18,38,0,199.98,2034,3,2327.5,3,25.41,2,35.149,2
Mirai,MR00-K8,97,2001,1,12,19,10,0,199.99,2034.5,3,2328.2,3,25.42,2,35.148,2
Mirai,MR00-K8,98,2001,1,12,20,7,0,200,2034.2,3,2328.3,3,25.45,2,35.148,2
Mirai,MR00-K8,99,2001,1,13,23,10,0,199.56,2037,3,2331.7,3,25.56,2,35.171,2
Mirai,MR00-K8,100,2001,1,13,23,43,0,199.41,2034.9,2,2329.7,2,25.57,2,35.172,2
Mirai,MR00-K8,101,2001,1,14,0,41,0,199.14,2034.9,2,2330.4,2,25.63,2,35.185,2
Mirai,MR00-K8,102,2001,1,14,1,13,0,198.99,2033.4,2,2329.2,2,25.7,2,35.2,2
Mirai,MR00-K8,103,2001,1,14,2,11,0,198.72,2034.7,2,2332.4,2,25.74,2,35.229,2
Mirai,MR00-K8,104,2001,1,14,2,43,0,198.57,2034.1,2,2333.4,2,25.79,2,35.259,2
Mirai,MR00-K8,105,2001,1,14,3,40,0,198.31,2039.8,2,2341.8,2,25.97,2,35.381,2
Mirai,MR00-K8,106,2001,1,14,4,12,0,198.16,2038.6,3,2340.2,3,25.96,2,35.38,2
Mirai,MR00-K8,107,2001,1,14,5,10,0,197.92,2040,3,2343,3,25.98,2,35.38,2
Mirai,MR00-K8,108,2001,1,14,5,42,0,197.77,2038,3,2341,3,26,2,35.383,2
Mirai,MR00-K8,109,2001,1,14,6,40,0,197.51,2038.5,2,2343.1,2,26.02,2,35.39,2
Mirai,MR00-K8,110,2001,1,14,7,13,0,197.37,2039,2,2344.4,2,26.05,2,35.39,2
Mirai,MR00-K8,111,2001,1,14,8,9,0,197.11,2037.7,2,2342.9,2,26.06,2,35.389,2
Mirai,MR00-K8,112,2001,1,14,8,42,0,196.97,2038,3,2343.4,3,26.07,2,35.388,2
Mirai,MR00-K8,113,2001,1,14,9,39,0,196.71,2037.1,3,2342.3,3,26.06,2,35.384,2
Mirai,MR00-K8,114,2001,1,14,10,12,0,196.57,2037.4,3,2342.6,3,26.05,2,35.384,2
Mirai,MR00-K8,115,2001,1,14,11,9,0,196.31,2036.8,3,2342.4,3,26.05,2,35.376,2
Mirai,MR00-K8,116,2001,1,14,11,42,0,196.17,2037.4,3,2342.8,3,26.05,2,35.374,2
Mirai,MR00-K8,117,2001,1,14,12,38,0,195.93,2038.1,2,2343.3,2,26.02,2,35.367,2
Mirai,MR00-K8,118,2001,1,14,13,11,0,195.78,2036.2,3,2340.1,3,26,2,35.362,2
Mirai,MR00-K8,119,2001,1,14,14,8,0.01,195.53,2038,2,2341.4,2,25.93,2,35.348,2
Mirai,MR00-K8,120,2001,1,14,14,41,0.01,195.38,2036.5,2,2337.4,2,25.88,2,35.333,2
Mirai,MR00-K8,121,2001,1,14,15,39,0,195.13,2037.9,2,2337.6,2,25.84,2,35.322,2
Mirai,MR00-K8,122,2001,1,14,16,11,0,194.99,2040.4,3,2340,3,25.82,2,35.313,2
Mirai,MR00-K8,123,2001,1,14,17,8,0,194.73,2039.5,2,2339,2,25.81,2,35.294,2
Mirai,MR00-K8,124,2001,1,14,17,40,0,194.59,2034.6,3,2332.9,3,25.82,2,35.289,2
Mirai,MR00-K8,125,2001,1,14,18,38,0,194.33,2037,2,2337.8,2,25.85,2,35.282,2
Mirai,MR00-K8,126,2001,1,14,19,10,0,194.19,2033.3,3,2333.6,3,25.86,2,35.284,2
Mirai,MR00-K8,127,2001,1,14,20,8,0,193.93,2033.2,3,2334.5,3,25.89,2,35.281,2
Mirai,MR00-K8,128,2001,1,14,20,40,0,193.84,2034.5,3,2336,3,25.9,2,35.284,2
Mirai,MR00-K8,129,2001,1,15,0,40,0,193.32,2032.7,3,2335.4,3,26.14,2,35.286,2
Mirai,MR00-K8,130,2001,1,15,1,13,0,193.17,2030.2,3,2333.3,3,26.19,2,35.285,2
Mirai,MR00-K8,131,2001,1,15,2,11,0,192.9,2032.8,2,2335.6,2,26.2,2,35.293,2
Mirai,MR00-K8,132,2001,1,15,2,43,0,192.75,2032.1,2,2334.5,2,26.19,2,35.296,2
Mirai,MR00-K8,133,2001,1,15,3,41,0,192.48,2033.1,2,2336.5,2,26.21,2,35.296,2
Mirai,MR00-K8,134,2001,1,15,4,13,0,192.33,2031.6,3,2334.5,3,26.2,2,35.306,2
Mirai,MR00-K8,135,2001,1,15,5,10,0,192.06,2034.6,2,2338.7,2,26.21,2,35.315,2
Mirai,MR00-K8,136,2001,1,15,5,42,0,191.93,2032.3,2,2336,2,26.2,2,35.317,2
Mirai,MR00-K8,137,2001,1,15,6,40,0,191.67,2031.2,2,2335.6,2,26.19,2,35.311,2
Mirai,MR00-K8,138,2001,1,15,7,12,0,191.51,2032.1,2,2337.2,2,26.19,2,35.32,2
Mirai,MR00-K8,139,2001,1,15,8,10,0.01,191.24,2032.8,2,2340,2,26.29,2,35.355,2
Mirai,MR00-K8,140,2001,1,15,8,43,0.01,191.09,2031.3,2,2338.4,2,26.28,2,35.371,2
Mirai,MR00-K8,141,2001,1,15,9,39,0,190.83,2034.1,3,2340.8,3,26.29,2,35.365,2
Mirai,MR00-K8,142,2001,1,15,10,12,0,190.68,2032.7,3,2339,3,26.33,2,35.372,2
Mirai,MR00-K8,143,2001,1,15,11,9,0,190.42,2030.9,3,2338.6,3,26.41,2,35.371,2
Mirai,MR00-K8,144,2001,1,15,11,42,0,190.27,2032,3,2339.8,3,26.42,2,35.375,2
Mirai,MR00-K8,145,2001,1,15,12,39,0,190.01,2032,3,2339.8,3,26.44,2,35.379,2
Mirai,MR00-K8,146,2001,1,15,13,12,0,189.88,2032.1,3,2340.7,3,26.47,2,35.378,2
Mirai,MR00-K8,147,2001,1,15,14,8,-0.01,189.76,2033.8,3,2343.5,3,26.49,2,35.382,2
Mirai,MR00-K8,148,2001,1,15,14,41,-0.01,189.77,2031,3,2339.4,3,26.49,2,35.381,2
Mirai,MR00-K8,149,2001,1,15,15,38,-0.01,189.78,2031.3,3,2339.7,3,26.48,2,35.382,2
Mirai,MR00-K8,150,2001,1,15,16,11,-0.01,189.78,2032.1,3,2340.8,3,26.47,2,35.38,2
Mirai,MR00-K8,151,2001,1,15,17,9,-0.01,189.82,2031.7,3,2339.8,3,26.46,2,35.38,2
Mirai,MR00-K8,152,2001,1,15,17,41,-0.01,189.82,2035.2,3,2343.7,3,26.46,2,35.38,2
Mirai,MR00-K8,153,2001,1,15,18,38,-0.01,189.83,2036.8,3,2345.4,3,26.43,2,35.379,2
Mirai,MR00-K8,154,2001,1,15,19,10,-0.01,189.82,2032.5,3,2340.1,3,26.44,2,35.379,2
Mirai,MR00-K8,155,2001,1,16,23,11,-0.01,189.77,2034.7,3,2341.7,3,26.55,2,35.371,2
Mirai,MR00-K8,156,2001,1,16,23,44,-0.01,189.63,2032.2,3,2340.7,3,26.61,2,35.377,2
Mirai,MR00-K8,157,2001,1,17,0,42,0,189.36,2032.2,3,2342.6,3,26.73,2,35.386,2
Mirai,MR00-K8,158,2001,1,17,1,14,0,189.22,2030.7,2,2340.6,2,26.76,2,35.389,2
Mirai,MR00-K8,159,2001,1,17,2,12,0,188.95,2030.7,2,2342.5,2,26.84,2,35.399,2
Mirai,MR00-K8,160,2001,1,17,2,44,0,188.81,2030.1,2,2342.9,2,26.86,2,35.408,2
Mirai,MR00-K8,161,2001,1,17,3,41,0,188.55,2027.3,3,2338,3,26.81,2,35.386,2
Mirai,MR00-K8,162,2001,1,17,4,13,0.01,188.4,2027.8,2,2340.6,2,26.83,2,35.377,2
Mirai,MR00-K8,163,2001,1,17,5,11,0,188.14,2028,2,2341.5,2,26.81,2,35.374,2
Mirai,MR00-K8,164,2001,1,17,5,43,0,187.99,2027.7,2,2341.4,2,26.81,2,35.37,2
Mirai,MR00-K8,165,2001,1,17,6,41,0,187.74,2025.2,3,2339.7,3,26.79,2,35.37,2
Mirai,MR00-K8,166,2001,1,17,7,14,0,187.59,2026.6,2,2341,2,26.79,2,35.37,2
Mirai,MR00-K8,167,2001,1,17,8,10,0,187.33,2026,2,2341.4,2,26.79,2,35.367,2
Mirai,MR00-K8,168,2001,1,17,8,43,0,187.18,2026.5,2,2341.8,2,26.78,2,35.362,2
Mirai,MR00-K8,169,2001,1,17,9,40,0,186.92,2026.3,2,2341.8,2,26.77,2,35.358,2
Mirai,MR00-K8,170,2001,1,17,10,13,0.01,186.77,2027.3,2,2343,2,26.77,2,35.356,2
Mirai,MR00-K8,171,2001,1,17,11,10,0,186.5,2025.7,2,2341.1,2,26.78,2,35.355,2
Mirai,MR00-K8,172,2001,1,17,11,43,0,186.35,2024.7,2,2339.7,2,26.79,2,35.356,2
Mirai,MR00-K8,173,2001,1,17,12,39,0,186.08,2025.4,3,2340.5,3,26.77,2,35.35,2
Mirai,MR00-K8,174,2001,1,17,13,12,0,185.94,2025.2,2,2340.5,2,26.78,2,35.347,2
Mirai,MR00-K8,175,2001,1,17,14,9,0,185.68,2025.1,3,2340.2,3,26.77,2,35.347,2
Mirai,MR00-K8,176,2001,1,17,14,42,0,185.52,2025.3,2,2339.7,2,26.76,2,35.348,2
Mirai,MR00-K8,177,2001,1,17,15,40,0,185.26,2027.3,3,2342.2,3,26.76,2,35.348,2
Mirai,MR00-K8,178,2001,1,17,16,12,0.01,185.1,2023.3,3,2337.7,3,26.77,2,35.345,2
Mirai,MR00-K8,179,2001,1,17,17,9,0.01,184.84,2024,3,2338.6,3,26.78,2,35.343,2
Mirai,MR00-K8,180,2001,1,17,17,41,0.01,184.68,2027.2,2,2343.2,2,26.79,2,35.343,2
Mirai,MR00-K8,181,2001,1,17,18,39,0.01,184.41,2026.4,3,2342.9,3,26.81,2,35.353,2
Mirai,MR00-K8,182,2001,1,17,19,11,0,184.26,2022.8,3,2339.5,3,26.84,2,35.363,2
Mirai,MR00-K8,183,2001,1,17,20,9,0,183.99,2024.6,3,2341.4,3,26.85,2,35.379,2
Mirai,MR00-K8,184,2001,1,17,20,41,0,183.84,2028.4,2,2345.4,2,26.86,2,35.381,2
Mirai,MR00-K8,185,2001,1,17,21,38,0,183.59,2024.5,3,2341.1,3,26.92,2,35.379,2
Mirai,MR00-K8,186,2001,1,17,22,11,0,183.43,2027.2,3,2343.5,3,26.96,2,35.377,2
Mirai,MR00-K8,187,2001,1,18,0,41,0,183.17,2025.3,2,2341.1,2,27.13,2,35.377,2
Mirai,MR00-K8,188,2001,1,18,1,14,0,183.02,2022.1,2,2338.2,2,27.15,2,35.376,2
Mirai,MR00-K8,189,2001,1,18,2,12,0,182.76,2023,2,2339.5,2,27.2,2,35.385,2
Mirai,MR00-K8,190,2001,1,18,2,44,0,182.62,2022.7,2,2340.9,2,27.25,2,35.4,2
Mirai,MR00-K8,191,2001,1,18,3,42,0,182.36,2020.3,2,2340.1,2,27.27,2,35.405,2
Mirai,MR00-K8,192,2001,1,18,4,14,0.01,182.22,2021.3,2,2341,2,27.26,2,35.408,2
Mirai,MR00-K8,193,2001,1,18,5,11,0,181.97,2022.3,2,2342,2,27.26,2,35.411,2
Mirai,MR00-K8,194,2001,1,18,5,43,0,181.85,2021.2,2,2340.8,2,27.26,2,35.41,2
Mirai,MR00-K8,195,2001,1,18,6,41,0,181.6,2021.7,2,2343.4,2,27.24,2,35.404,2
Mirai,MR00-K8,196,2001,1,18,7,13,0,181.45,2022.3,2,2343.3,2,27.26,2,35.414,2
Mirai,MR00-K8,197,2001,1,18,8,11,0,181.2,2021.7,2,2342.6,2,27.28,2,35.425,2
Mirai,MR00-K8,198,2001,1,18,8,44,0,181.06,2023.9,2,2344.9,2,27.27,2,35.428,2
Mirai,MR00-K8,199,2001,1,18,9,40,0,180.81,2023,2,2342.1,2,27.27,2,35.43,2
Mirai,MR00-K8,200,2001,1,18,10,13,0,180.67,2024.5,2,2343.7,2,27.28,2,35.426,2
Mirai,MR00-K8,201,2001,1,18,11,10,0,180.42,2024.4,2,2343.8,2,27.3,2,35.425,2
Mirai,MR00-K8,202,2001,1,18,11,43,0,180.28,2026.9,2,2345.1,2,27.28,2,35.419,2
Mirai,MR00-K8,203,2001,1,18,12,40,0,180.03,2023.1,2,2342.4,2,27.3,2,35.403,2
Mirai,MR00-K8,204,2001,1,18,13,13,0,179.91,2021.9,2,2342.2,2,27.32,2,35.403,2
Mirai,MR00-K8,205,2001,1,18,14,9,0,179.69,2022.3,2,2342.3,2,27.32,2,35.392,2
Mirai,MR00-K8,206,2001,1,18,14,42,0,179.55,2022.7,3,2342.9,3,27.35,2,35.398,2
Mirai,MR00-K8,207,2001,1,18,15,39,0,179.31,2022.5,2,2343.6,2,27.4,2,35.4,2
Mirai,MR00-K8,208,2001,1,18,16,12,0,179.17,2019.3,3,2340.5,3,27.42,2,35.4,2
Mirai,MR00-K8,209,2001,1,18,17,10,0,178.92,2019,3,2341.7,3,27.46,2,35.401,2
Mirai,MR00-K8,210,2001,1,18,17,42,0,178.79,2020.3,2,2343.9,2,27.47,2,35.408,2
Mirai,MR00-K8,211,2001,1,18,18,39,0,178.55,2017.4,3,2341.8,3,27.51,2,35.42,2
Mirai,MR00-K8,212,2001,1,18,19,11,0,178.41,2019.7,2,2346,2,27.54,2,35.433,2
Mirai,MR00-K8,213,2001,1,18,20,9,0,178.16,2019.7,3,2344.5,3,27.53,2,35.444,2
Mirai,MR00-K8,214,2001,1,18,20,41,0,178.02,2022.7,3,2344.7,3,27.49,2,35.427,2
Mirai,MR00-K8,215,2001,1,18,21,39,0,177.8,2022.2,2,2346.3,2,27.53,2,35.424,2
Mirai,MR00-K8,216,2001,1,18,22,11,0,177.66,2023,2,2347.3,2,27.55,2,35.426,2
Mirai,MR00-K8,217,2001,1,19,0,40,-0.01,177.46,2017.5,3,2341.3,3,27.64,2,35.418,2
Mirai,MR00-K8,218,2001,1,19,1,13,0,177.32,2016,2,2339.4,2,27.67,2,35.418,2
Mirai,MR00-K8,219,2001,1,19,2,11,0,177.08,2015.7,2,2339.8,2,27.72,2,35.415,2
Mirai,MR00-K8,220,2001,1,19,2,43,0,176.94,2016.1,3,2340.1,3,27.73,2,35.416,2
Mirai,MR00-K8,221,2001,1,19,3,41,0,176.69,2016,2,2340.4,2,27.73,2,35.413,2
Mirai,MR00-K8,222,2001,1,19,4,13,0,176.55,2015,2,2339.9,2,27.74,2,35.41,2
Mirai,MR00-K8,223,2001,1,19,5,10,0,176.31,2015.8,2,2342.5,2,27.77,2,35.413,2
Mirai,MR00-K8,224,2001,1,19,5,42,0,176.17,2015.1,2,2342.7,2,27.8,2,35.409,2
Mirai,MR00-K8,225,2001,1,19,6,40,0,175.93,2015,2,2343.7,2,27.83,2,35.423,2
Mirai,MR00-K8,226,2001,1,19,7,12,0,175.79,2012.9,2,2341.4,2,27.81,2,35.428,2
Mirai,MR00-K8,227,2001,1,19,8,10,0,175.54,2011.8,3,2341.1,3,27.84,2,35.422,2
Mirai,MR00-K8,228,2001,1,19,8,43,0,175.4,2012.4,2,2342.1,2,27.82,2,35.432,2
Mirai,MR00-K8,229,2001,1,19,9,39,0.02,175.16,2013.3,2,2343.4,2,27.82,2,35.429,2
Mirai,MR00-K8,230,2001,1,19,10,12,0.03,175.01,2012.5,2,2343.5,2,27.84,2,35.426,2
Mirai,MR00-K8,231,2001,1,19,11,9,0.04,174.87,2013.3,3,2345.4,3,27.85,2,35.417,2
Mirai,MR00-K8,232,2001,1,19,11,42,0.04,174.86,2011.5,3,2342.7,3,27.83,2,35.417,2
Mirai,MR00-K8,233,2001,1,19,12,39,0.04,174.86,2013.3,3,2344.4,3,27.81,2,35.424,2
Mirai,MR00-K8,234,2001,1,19,13,12,0.04,174.85,2013.9,3,2344.6,3,27.8,2,35.425,2
Mirai,MR00-K8,235,2001,1,19,14,8,0.04,174.85,2015.8,3,2346.9,3,27.81,2,35.426,2
Mirai,MR00-K8,236,2001,1,19,14,41,0.04,174.85,2015.2,3,2345.4,3,27.81,2,35.428,2
Mirai,MR00-K8,237,2001,1,19,15,38,0.04,174.9,2014.2,3,2343.9,3,27.78,2,35.43,2
Mirai,MR00-K8,238,2001,1,19,16,11,0.04,174.9,2014.6,3,2344.3,3,27.77,2,35.43,2
Mirai,MR00-K8,239,2001,1,19,17,9,0.04,174.88,2015.3,3,2345,3,27.76,2,35.43,2
Mirai,MR00-K8,240,2001,1,19,17,41,0.05,174.88,2016.2,3,2346,3,27.76,2,35.429,2
Mirai,MR00-K8,241,2001,1,19,18,38,0.04,174.91,2015,3,2344.5,3,27.75,2,35.43,2
Mirai,MR00-K8,242,2001,1,19,19,10,0.05,174.92,2019,3,2349.1,3,27.75,2,35.428,2
Mirai,MR00-K8,243,2001,1,19,20,8,0.05,174.91,2019,3,2349.4,3,27.75,2,35.429,2
Mirai,MR00-K8,244,2001,1,19,20,40,0.05,174.9,2015,3,2344.3,3,27.76,2,35.432,2
Mirai,MR00-K8,245,2001,1,20,9,41,0.02,174.83,2019.1,3,2351.5,3,27.84,2,35.432,2
Mirai,MR00-K8,246,2001,1,20,10,14,0.02,174.83,2016.9,3,2348.2,3,27.83,2,35.435,2
Mirai,MR00-K8,247,2001,1,20,11,12,0.02,174.82,2015.6,3,2346.3,3,27.83,2,35.437,2
Mirai,MR00-K8,248,2001,1,20,11,44,0.02,174.82,2015.4,2,2346,2,27.83,2,35.434,2
Mirai,MR00-K8,249,2001,1,20,12,42,0.02,174.64,2015.6,2,2347.2,2,27.83,2,35.43,2
Mirai,MR00-K8,250,2001,1,20,13,14,0.01,174.49,2015.9,2,2347.7,2,27.82,2,35.427,2
Mirai,MR00-K8,251,2001,1,20,14,11,0.01,174.24,2013.5,2,2346.3,2,27.79,2,35.419,2
Mirai,MR00-K8,252,2001,1,20,14,43,0,174.09,2011.9,2,2345.4,2,27.82,2,35.413,2
Mirai,MR00-K8,253,2001,1,20,15,41,-0.03,173.85,2009.4,2,2342.9,2,27.81,2,35.401,2
Mirai,MR00-K8,254,2001,1,20,16,13,-0.07,173.71,2010.2,2,2345.2,2,27.81,2,35.409,2
Mirai,MR00-K8,255,2001,1,20,17,11,-0.14,173.46,2009.7,2,2346,2,27.85,2,35.403,2
Mirai,MR00-K8,256,2001,1,20,17,43,-0.13,173.31,2009.1,2,2344.9,2,27.86,2,35.407,2
Mirai,MR00-K8,257,2001,1,20,18,40,-0.13,173.04,2009.6,3,2345.2,3,27.82,2,35.315,2
Mirai,MR00-K8,258,2001,1,20,19,13,-0.12,172.89,2008.5,2,2343.6,2,27.83,2,35.369,2
Mirai,MR00-K8,259,2001,1,20,20,10,-0.12,172.63,2010.9,3,2342.4,3,27.77,2,35.406,2
Mirai,MR00-K8,260,2001,1,20,20,43,-0.12,172.48,2017.9,2,2347.8,2,27.74,2,35.406,2
Mirai,MR00-K8,261,2001,1,20,21,40,-0.12,172.22,2018.9,2,2348.5,2,27.76,2,35.418,2
Mirai,MR00-K8,262,2001,1,20,22,13,-0.11,172.08,2016.9,2,2345.2,2,27.8,2,35.426,2
Mirai,MR00-K8,263,2001,1,20,23,9,-0.11,171.85,2021.7,2,2348.2,2,27.96,2,35.46,2
Mirai,MR00-K8,264,2001,1,20,23,42,-0.11,171.71,2020.9,3,2350.2,3,28.05,2,35.465,2
Mirai,MR00-K8,265,2001,1,21,0,39,-0.1,171.46,2020,2,2350.1,2,28.09,2,35.458,2
Mirai,MR00-K8,266,2001,1,21,1,12,-0.1,171.32,2017.3,3,2346.3,3,28.14,2,35.457,2
Mirai,MR00-K8,267,2001,1,21,2,10,-0.09,171.07,2019.7,2,2348.4,2,28.17,2,35.455,2
Mirai,MR00-K8,268,2001,1,21,2,42,-0.09,170.93,2015,3,2344.4,3,28.24,2,35.459,2
Mirai,MR00-K8,269,2001,1,21,3,39,-0.08,170.68,2017.6,2,2347.9,2,28.3,2,35.457,2
Mirai,MR00-K8,270,2001,1,21,4,11,-0.08,170.54,2016.5,2,2346.8,2,28.31,2,35.453,2
Mirai,MR00-K8,271,2001,1,21,6,42,-0.06,169.89,2014.8,2,2346.2,2,28.29,2,35.44,2
Mirai,MR00-K8,272,2001,1,21,7,15,-0.06,169.75,2013,2,2346.2,2,28.29,2,35.439,2
Mirai,MR00-K8,273,2001,1,21,8,13,-0.05,169.5,2009.8,3,2344.8,3,28.34,2,35.434,2
Mirai,MR00-K8,274,2001,1,21,8,45,-0.05,169.36,2010,2,2346,2,28.35,2,35.436,2
Mirai,MR00-K8,275,2001,1,21,9,43,-0.04,169.11,2009.8,2,2346.8,2,28.38,2,35.445,2
Mirai,MR00-K8,276,2001,1,21,10,15,-0.04,168.97,2007.5,2,2345.2,2,28.38,2,35.436,2
Mirai,MR00-K8,277,2001,1,21,11,12,-0.03,168.72,2008,2,2345.8,2,28.36,2,35.404,2
Mirai,MR00-K8,278,2001,1,21,11,44,-0.03,168.58,2007.5,2,2343.4,2,28.36,2,35.413,2
Mirai,MR00-K8,279,2001,1,21,12,42,-0.02,168.33,2008.5,2,2341.7,2,28.24,2,35.375,2
Mirai,MR00-K8,280,2001,1,21,13,14,-0.02,168.19,2007.2,2,2340.3,2,28.26,2,35.367,2
Mirai,MR00-K8,281,2001,1,21,14,12,-0.02,167.96,2007.2,2,2340.5,2,28.2,2,35.325,2
Mirai,MR00-K8,282,2001,1,21,14,44,-0.02,167.82,2002.3,3,2335,3,28.21,2,35.312,2
Mirai,MR00-K8,283,2001,1,21,15,41,-0.01,167.58,2002.3,2,2336,2,28.24,2,35.283,2
Mirai,MR00-K8,284,2001,1,21,16,14,-0.01,167.44,2001.9,2,2335.4,2,28.25,2,35.292,2
Mirai,MR00-K8,285,2001,1,21,17,11,-0.01,167.19,2001.9,2,2336.4,2,28.28,2,35.307,2
Mirai,MR00-K8,286,2001,1,21,17,44,-0.01,167.05,2001.9,3,2336.7,3,28.29,2,35.318,2
Mirai,MR00-K8,287,2001,1,21,18,41,0,166.99,2004,2,2338.8,2,28.28,2,35.317,2
Mirai,MR00-K8,288,2001,1,21,19,14,0.01,166.98,2005.4,2,2339.9,2,28.25,2,35.317,2
Mirai,MR00-K8,289,2001,1,21,20,10,0,166.95,2003,2,2337.1,2,28.25,2,35.323,2